Torna al catalogo

SL-16 DEB

AttivoLEO
NORAD 22578·DEBRIS·🇷🇺 Russia

Lanciato Mar 26, 1993 da Baikonur Cosmodrome

Loading…

Prossimi Passaggi (prossime 24 ore)

TLE

AggiornatoSource: Space-Track

Epoca: Sep 14, 2026, 22:08 UTC

1 22578U 93016F   26257.92260264  .00000291  00000-0  78408-4 0  9999
2 22578  71.0631 305.6089 0104470  78.1420  94.3988 14.53279487768342

Traccia SL-16 DEB in tempo reale con AllMySat

Download on the App Store